Location: Ferintosh
(52.7647°N, 112.9692°W)
Time: 19:44:56
(UTC+00:00)

Explorer 7 - Pass Details

Date: 22 May 2024
Orbit: 466 x 622 km, 50.3° (Epoch: 16 June)

Event Time Altitude Azimuth Distance (km) Brightness Sun altitude
Rises 06:19:13 0° 210° (SSW) 2,529 - -15.2°
Reaches altitude 10° 06:21:46 10° 192° (SSW) 1,676 - -15.3°
Maximum altitude 06:24:32 19° 145° (SE) 1,228 - -15.4°
Exits shadow 06:26:35 14° 108° (ESE) 1,519 8.8 -15.5°
Drops below altitude 10° 06:27:23 10° 98° (E) 1,742 9.1 -15.5°
Sets 06:30:06 0° 81° (E) 2,668 10.3 -15.6°
